Location: Arbon
(43.0005°N, 0.7472°E)
Time: 11:51:45
(UTC+00:00)

Lacrosse 5 rocket - Pass Details

Date: 22 April 2026
Orbit: 390 x 472 km, 57.0° (Epoch: 15 May)

Event Time Altitude Azimuth Distance (km) Brightness Sun altitude
Rises 21:49:26 0° 322° (NW) 2,287 5.8 -27.5°
Reaches altitude 10° 21:51:52 10° 340° (NNW) 1,430 4.3 -27.8°
Enters shadow 21:52:47 15° 354° (N) 1,181 3.7 -27.9°
